TimeMST,TemperatureF,Dew PointF,Humidity,Sea Level PressureIn,VisibilityMPH,Wind Direction,Wind SpeedMPH,Gust SpeedMPH,PrecipitationIn,Events,Conditions,WindDirDegrees,DateUTC
12:15 AM,7.2,0.7,75,30.20,10.0,North,3.5,-,N/A,,Clear,10,2013-02-15 07:15:00
12:35 AM,9.9,1.8,70,30.21,10.0,Calm,Calm,-,N/A,,Clear,0,2013-02-15 07:35:00
12:55 AM,9.9,1.9,70,30.22,10.0,Calm,Calm,-,N/A,,Clear,0,2013-02-15 07:55:00
1:15 AM,7.5,-0.0,71,30.21,10.0,Calm,Calm,-,N/A,,Clear,0,2013-02-15 08:15:00
1:35 AM,7.5,-2.0,65,30.22,10.0,Calm,Calm,-,N/A,,Clear,0,2013-02-15 08:35:00
1:55 AM,7.5,-0.2,71,30.22,10.0,Calm,Calm,-,N/A,,Clear,0,2013-02-15 08:55:00
2:15 AM,8.4,-1.1,65,30.22,10.0,Calm,Calm,-,N/A,,Clear,0,2013-02-15 09:15:00
2:35 AM,6.6,-1.3,70,30.23,10.0,Calm,Calm,-,N/A,,Clear,0,2013-02-15 09:35:00
2:55 AM,5.0,-2.0,73,30.22,10.0,SW,4.6,-,N/A,,Clear,230,2013-02-15 09:55:00
3:15 AM,5.5,-2.7,69,30.21,10.0,Calm,Calm,-,N/A,,Clear,0,2013-02-15 10:15:00
3:35 AM,2.3,-4.0,75,30.21,10.0,Calm,Calm,-,N/A,,Clear,0,2013-02-15 10:35:00
3:55 AM,4.6,-1.1,77,30.21,10.0,Calm,Calm,-,N/A,,Clear,0,2013-02-15 10:55:00
4:15 AM,3.2,-2.0,79,30.21,10.0,Calm,Calm,-,N/A,,Clear,0,2013-02-15 11:15:00
4:35 AM,2.8,-1.8,81,30.22,10.0,Calm,Calm,-,N/A,Thunderstorm,Clear,0,2013-02-15 11:35:00
4:55 AM,3.9,-1.8,77,30.22,10.0,Calm,Calm,-,N/A,,Clear,0,2013-02-15 11:55:00
5:15 AM,0.3,-4.7,79,30.22,10.0,Calm,Calm,-,N/A,,Clear,0,2013-02-15 12:15:00
5:35 AM,3.2,-2.4,78,30.23,10.0,Calm,Calm,-,N/A,,Clear,0,2013-02-15 12:35:00
5:55 AM,3.6,-2.4,76,30.23,10.0,Calm,Calm,-,N/A,,Clear,0,2013-02-15 12:55:00
6:15 AM,4.6,-2.0,74,30.24,10.0,Calm,Calm,-,N/A,,Clear,0,2013-02-15 13:15:00
6:35 AM,5.7,-0.6,75,30.24,10.0,Calm,Calm,-,N/A,,Clear,0,2013-02-15 13:35:00
6:55 AM,6.3,-0.2,75,30.25,10.0,Calm,Calm,-,N/A,,Clear,0,2013-02-15 13:55:00
7:15 AM,2.7,-1.7,82,30.25,10.0,Calm,Calm,-,N/A,,Clear,0,2013-02-15 14:15:00
7:35 AM,4.8,-0.9,77,30.25,10.0,Calm,Calm,-,N/A,,Clear,0,2013-02-15 14:35:00
7:55 AM,7.3,0.9,75,30.27,10.0,Calm,Calm,-,N/A,,Clear,0,2013-02-15 14:55:00
8:15 AM,8.1,-2.2,63,30.27,10.0,West,3.5,-,N/A,,Clear,260,2013-02-15 15:15:00
8:35 AM,14.5,1.4,56,30.27,10.0,Calm,Calm,-,N/A,,Clear,0,2013-02-15 15:35:00
8:55 AM,14.7,-1.8,48,30.27,10.0,Calm,Calm,-,N/A,,Clear,0,2013-02-15 15:55:00
9:15 AM,18.5,0.7,46,30.27,10.0,Calm,Calm,-,N/A,,Clear,0,2013-02-15 16:15:00
9:35 AM,22.5,3.0,43,30.27,10.0,South,8.1,-,N/A,,Clear,170,2013-02-15 16:35:00
9:55 AM,25.0,3.9,41,30.27,10.0,Calm,Calm,-,N/A,,Clear,0,2013-02-15 16:55:00
10:15 AM,27.1,7.0,43,30.27,10.0,Calm,Calm,-,N/A,,Clear,0,2013-02-15 17:15:00
10:55 AM,28.6,7.5,41,30.28,10.0,South,3.5,-,N/A,,Scattered Clouds,170,2013-02-15 17:55:00
11:15 AM,29.8,8.1,40,30.28,10.0,SW,4.6,-,N/A,,Scattered Clouds,220,2013-02-15 18:15:00
11:35 AM,30.7,5.4,34,30.28,10.0,SSW,5.8,-,N/A,,Clear,200,2013-02-15 18:35:00
11:55 AM,32.0,7.3,36,30.27,10.0,SSW,8.1,-,N/A,,Clear,210,2013-02-15 18:55:00
12:15 PM,34.0,6.8,32,30.27,10.0,SSW,6.9,-,N/A,,Clear,200,2013-02-15 19:15:00
12:35 PM,35.6,2.3,25,30.26,10.0,South,6.9,-,N/A,,Clear,190,2013-02-15 19:35:00
12:55 PM,36.9,-0.2,21,30.26,10.0,SSE,3.5,-,N/A,,Clear,150,2013-02-15 19:55:00
1:15 PM,37.4,1.0,22,30.25,10.0,South,5.8,-,N/A,,Clear,190,2013-02-15 20:15:00
1:35 PM,37.9,1.2,21,30.24,10.0,Calm,Calm,-,N/A,,Clear,0,2013-02-15 20:35:00
1:55 PM,37.8,-3.1,18,30.24,10.0,West,5.8,-,N/A,,Clear,280,2013-02-15 20:55:00
2:15 PM,37.8,-0.9,20,30.24,10.0,WNW,8.1,-,N/A,,Clear,300,2013-02-15 21:15:00
2:35 PM,38.1,-2.2,18,30.24,10.0,WNW,5.8,-,N/A,,Clear,290,2013-02-15 21:35:00
2:55 PM,38.3,-3.8,17,30.25,10.0,WNW,8.1,17.3,N/A,,Clear,290,2013-02-15 21:55:00
3:15 PM,38.3,-5.4,16,30.25,10.0,West,10.4,-,N/A,,Clear,270,2013-02-15 22:15:00
3:35 PM,38.7,-5.3,15,30.25,10.0,WNW,5.8,-,N/A,,Clear,300,2013-02-15 22:35:00
3:55 PM,38.3,-3.3,17,30.26,10.0,WNW,8.1,-,N/A,,Clear,300,2013-02-15 22:55:00
4:15 PM,38.1,-6.0,15,30.26,10.0,West,9.2,17.3,N/A,,Clear,270,2013-02-15 23:15:00
4:35 PM,37.6,-4.2,17,30.26,10.0,WNW,8.1,-,N/A,,Clear,300,2013-02-15 23:35:00
4:55 PM,36.3,-2.7,19,30.26,10.0,NW,8.1,-,N/A,,Clear,310,2013-02-15 23:55:00
5:15 PM,36.3,-4.2,18,30.27,10.0,NW,9.2,-,N/A,,Clear,320,2013-02-16 00:15:00
5:35 PM,35.8,-5.1,17,30.27,10.0,NNW,5.8,-,N/A,,Clear,340,2013-02-16 00:35:00
5:55 PM,32.7,-2.2,22,30.28,10.0,WNW,10.4,-,N/A,,Clear,300,2013-02-16 00:55:00
6:15 PM,32.0,-2.9,22,30.28,10.0,Calm,Calm,-,N/A,,Clear,0,2013-02-16 01:15:00
6:35 PM,28.2,-1.7,28,30.29,10.0,NNW,4.6,-,N/A,,Clear,340,2013-02-16 01:35:00
6:55 PM,23.0,0.7,38,30.29,10.0,North,3.5,-,N/A,,Clear,350,2013-02-16 01:55:00
7:15 PM,26.1,-2.6,29,30.29,10.0,Calm,Calm,-,N/A,,Clear,0,2013-02-16 02:15:00
7:35 PM,27.7,-4.4,25,30.29,10.0,Calm,Calm,-,N/A,,Clear,0,2013-02-16 02:35:00
7:55 PM,22.8,-2.4,33,30.29,10.0,Calm,Calm,-,N/A,,Clear,0,2013-02-16 02:55:00
8:15 PM,21.9,-2.0,35,30.31,10.0,West,4.6,-,N/A,,Clear,260,2013-02-16 03:15:00
8:35 PM,25.7,-2.6,29,30.33,10.0,SW,5.8,-,N/A,,Clear,220,2013-02-16 03:35:00
8:55 PM,25.0,-2.7,30,30.35,10.0,Calm,Calm,-,N/A,,Clear,0,2013-02-16 03:55:00
9:15 PM,20.5,-2.6,36,30.34,10.0,Calm,Calm,-,N/A,,Clear,0,2013-02-16 04:15:00
9:35 PM,18.3,-0.6,44,30.35,10.0,Calm,Calm,-,N/A,,Clear,0,2013-02-16 04:35:00
9:55 PM,19.2,-0.6,42,30.34,10.0,Calm,Calm,-,N/A,,Clear,0,2013-02-16 04:55:00
10:15 PM,14.2,-0.4,52,30.35,10.0,Calm,Calm,-,N/A,,Clear,0,2013-02-16 05:15:00
10:35 PM,17.8,2.3,51,30.34,10.0,Calm,Calm,-,N/A,,Clear,0,2013-02-16 05:35:00
10:55 PM,11.7,-0.9,57,30.35,10.0,Calm,Calm,-,N/A,,Clear,0,2013-02-16 05:55:00
11:15 PM,16.5,0.3,49,30.36,10.0,North,3.5,-,N/A,,Clear,360,2013-02-16 06:15:00
11:35 PM,17.8,-0.0,46,30.36,10.0,NE,3.5,-,N/A,,Clear,40,2013-02-16 06:35:00
11:55 PM,14.7,-0.8,50,30.36,10.0,NNE,4.6,-,N/A,,Clear,30,2013-02-16 06:55:00